Change the Weather History Date:

Thursday, October 6, 2011

  Actual Average Record
Temperature  
Mean Temperature 36 °F 48 °F  
Max Temperature 39 °F 63 °F 126 °F (2007)
Min Temperature 32 °F 34 °F 21 °F (2000)
Degree Days  
Heating Degree Days 29 17  
Month to date heating degree days 56 95  
Since 1 July heating degree days 213 453  
Cooling Degree Days 0 0  
Month to date cooling degree days 0 0  
Year to date cooling degree days 222 208  
Moisture  
Dew Point 34 °F    
Average Humidity 96    
Maximum Humidity 100    
Minimum Humidity 92    
Precipitation  
Precipitation 0.60 in 0.04 in 1.05 in (2007)
Month to date precipitation 1.15 0.21  
Year to date precipitation 11.56 10.09  
Sea Level Pressure  
Sea Level Pressure 29.67 in    
Wind  
Wind Speed 8 mph (SSW)    
Max Wind Speed 15 mph    
Max Gust Speed 20 mph    
Visibility 5 miles    
Events Fog , Rain , Snow    
T = Trace of Precipitation, MM = Missing Value Source: NWS Daily Summary

Daily Weather History Graph

Daily Weather History Graph

Search for Another Location

Airport or City:

Trip Planner

Search our weather history database for the weather conditions in past years. The results will help you decide how hot, cold, wet, or windy it might be!

Date:

Astronomy

Oct. 06, 2011 Rise Set
Actual Time 7:30 AM MDT 6:59 PM MDT
Civil Twilight 7:01 AM MDT 7:28 PM MDT
Nautical Twilight 6:28 AM MDT 8:01 PM MDT
Astronomical Twilight 5:54 AM MDT 8:34 PM MDT
Moon 4:23 PM MDT (10/6) 2:13 AM MDT (10/6)
Length of Visible Light 12h 26m
Length of Day
11h 29m
Waxing Gibbous, 76% of the Moon is Illuminated
Oct 6
Waxing Gibbous
Oct 11
Full
Oct 19
Last Quarter
Oct 26
New
Nov 2
First Quarter

Hourly Weather History & Observations

Time (MDT) Temp. Windchill Dew Point Humidity Pressure Visibility Wind Dir Wind Speed Gust Speed Precip Events Conditions
12:19 AM 39.2 °F 31.6 °F 37.4 °F 93% 29.59 in 10.0 mi SSW 12.7 mph - N/A   Overcast
12:53 AM 37.9 °F 30.9 °F 37.0 °F 97% 29.56 in 10.0 mi SSW 10.4 mph - N/A   Overcast
1:53 AM 37.9 °F 31.5 °F 36.0 °F 93% 29.56 in 10.0 mi SSW 9.2 mph - 0.01 in   Overcast
2:21 AM 37.4 °F 32.1 °F 35.6 °F 93% 29.60 in 10.0 mi SSW 6.9 mph - N/A   Overcast
2:45 AM 37.4 °F 32.8 °F 37.4 °F 100% 29.60 in 10.0 mi SSW 5.8 mph - 0.00 in Rain Light Rain
2:53 AM 37.9 °F 33.5 °F 37.0 °F 97% 29.56 in 10.0 mi SSW 5.8 mph - 0.00 in Rain Light Rain
3:09 AM 37.4 °F 32.1 °F 37.4 °F 100% 29.59 in 8.0 mi South 6.9 mph - 0.00 in Rain Light Rain
3:16 AM 37.4 °F 32.8 °F 37.4 °F 100% 29.59 in 10.0 mi South 5.8 mph - 0.00 in Rain Light Rain
3:53 AM 39.0 °F 34.8 °F 37.0 °F 93% 29.57 in 10.0 mi South 5.8 mph - 0.01 in Rain Light Rain
4:53 AM 39.0 °F 34.0 °F 37.9 °F 96% 29.58 in 10.0 mi SSW 6.9 mph - 0.01 in Rain Light Rain
5:53 AM 39.0 °F 34.8 °F 37.0 °F 93% 29.56 in 10.0 mi SSW 5.8 mph - 0.00 in   Overcast
6:53 AM 39.0 °F 35.7 °F 37.0 °F 93% 29.56 in 8.0 mi South 4.6 mph - 0.00 in Rain Light Rain
7:38 AM 39.2 °F 34.2 °F 37.4 °F 93% 29.59 in 6.0 mi South 6.9 mph - 0.01 in Rain Light Rain
7:53 AM 39.0 °F 35.7 °F 37.9 °F 96% 29.57 in 8.0 mi South 4.6 mph - 0.02 in Rain Light Rain
8:24 AM 37.4 °F 30.3 °F 35.6 °F 93% 29.60 in 10.0 mi SW 10.4 mph - 0.00 in Rain Light Rain
8:48 AM 37.4 °F 30.8 °F 35.6 °F 93% 29.59 in 10.0 mi SSW 9.2 mph - 0.00 in   Overcast
9:53 AM 35.1 °F 28.6 °F 34.0 °F 96% 29.60 in 4.0 mi SW 8.1 mph - 0.02 in Rain Rain
10:53 AM 36.0 °F 29.6 °F 35.1 °F 97% 29.61 in 6.0 mi SSW 8.1 mph - 0.04 in Rain Light Rain
11:35 AM 35.6 °F 28.6 °F 33.8 °F 93% 29.60 in 2.5 mi SSW 9.2 mph - 0.05 in Snow Light Snow
11:44 AM 35.6 °F 28.6 °F 35.6 °F 100% 29.60 in 4.0 mi SSW 9.2 mph - 0.05 in Snow Light Snow
11:53 AM 35.1 °F 27.4 °F 35.1 °F 100% 29.62 in 5.0 mi SSW 10.4 mph - 0.06 in Snow Light Snow
12:53 PM 36.0 °F 28.0 °F 35.1 °F 97% 29.63 in 9.0 mi SSW 11.5 mph - 0.03 in Snow Light Snow
1:53 PM 35.1 °F 26.9 °F 34.0 °F 96% 29.65 in 6.0 mi SSW 11.5 mph - 0.02 in Snow Light Snow
2:23 PM 33.8 °F 25.8 °F 33.8 °F 100% 29.63 in 1.8 mi SSW 10.4 mph - 0.02 in Snow Light Snow
2:53 PM 33.1 °F 26.1 °F 33.1 °F 100% 29.68 in 1.2 mi South 8.1 mph - 0.04 in Snow Light Snow
3:06 PM 33.8 °F 26.4 °F 32.0 °F 93% 29.66 in 0.5 mi South 9.2 mph - 0.02 in Fog , Snow Snow
3:32 PM 33.8 °F 25.3 °F 32.0 °F 93% 29.68 in 0.2 mi South 11.5 mph - 0.06 in Fog , Snow Heavy Snow
3:40 PM 33.8 °F 26.4 °F 32.0 °F 93% 29.68 in 0.5 mi South 9.2 mph - 0.07 in Fog , Snow Snow
3:53 PM 33.1 °F 26.1 °F 32.0 °F 96% 29.72 in 0.2 mi SSW 8.1 mph - 0.09 in Fog , Snow Heavy Snow
4:08 PM 33.8 °F 26.4 °F 32.0 °F 93% 29.70 in 0.5 mi South 9.2 mph - 0.03 in Fog , Snow Snow
4:38 PM 33.8 °F 25.3 °F 32.0 °F 93% 29.71 in 1.8 mi SSW 11.5 mph - 0.05 in Snow Light Snow
4:42 PM 33.8 °F 25.3 °F 32.0 °F 93% 29.71 in 3.0 mi SSW 11.5 mph - 0.05 in Snow Light Snow
4:53 PM 33.1 °F 24.4 °F 33.1 °F 100% 29.75 in 8.0 mi SSW 11.5 mph - 0.05 in Snow Light Snow
5:53 PM 34.0 °F 26.0 °F 33.1 °F 96% 29.75 in 4.0 mi SSW 10.4 mph - 0.01 in Snow Light Snow
7:30 PM 33.8 °F 25.8 °F 33.8 °F 100% 29.76 in 1.8 mi South 10.4 mph - 0.04 in Snow Light Snow
7:48 PM 33.8 °F 27.0 °F 33.8 °F 100% 29.76 in 2.0 mi SSW 8.1 mph - 0.06 in Snow Light Snow
7:53 PM 33.1 °F 25.5 °F 33.1 °F 100% 29.79 in 1.8 mi SSW 9.2 mph - 0.07 in Snow Light Snow
8:04 PM 33.8 °F 27.7 °F 33.8 °F 100% 29.77 in 2.5 mi South 6.9 mph - 0.00 in Snow Light Snow
8:20 PM 33.8 °F 27.7 °F 33.8 °F 100% 29.77 in 1.2 mi SSW 6.9 mph - 0.02 in Snow Light Snow
8:53 PM 33.1 °F 26.9 °F 32.0 °F 96% 29.80 in 1.2 mi South 6.9 mph - 0.05 in Snow Light Snow
9:34 PM 33.8 °F 27.0 °F 32.0 °F 93% 29.78 in 2.5 mi South 8.1 mph - 0.02 in Snow Light Snow
9:42 PM 33.8 °F 27.7 °F 32.0 °F 93% 29.78 in 4.0 mi South 6.9 mph - 0.02 in Snow Light Snow
9:53 PM 33.1 °F 27.7 °F 33.1 °F 100% 29.81 in 4.0 mi SSW 5.8 mph - 0.02 in Snow Light Snow
10:19 PM 33.8 °F 27.7 °F 32.0 °F 93% 29.77 in 2.5 mi South 6.9 mph - 0.01 in Snow Light Snow
10:30 PM 33.8 °F 27.0 °F 32.0 °F 93% 29.77 in 3.0 mi South 8.1 mph - 0.01 in Snow Light Snow
10:46 PM 33.8 °F 27.0 °F 32.0 °F 93% 29.76 in 2.5 mi SSW 8.1 mph - 0.02 in Snow Light Snow
10:53 PM 33.1 °F 26.9 °F 32.0 °F 96% 29.80 in 3.0 mi South 6.9 mph - 0.02 in Snow Light Snow
11:06 PM 33.8 °F 26.4 °F 32.0 °F 93% 29.76 in 2.5 mi SSW 9.2 mph - 0.00 in Snow Light Snow
11:15 PM 33.8 °F 27.7 °F 32.0 °F 93% 29.76 in 3.0 mi SSW 6.9 mph - 0.00 in Snow Light Snow
11:53 PM 33.1 °F 25.5 °F 32.0 °F 96% 29.82 in 6.0 mi SSW 9.2 mph - 0.01 in Snow Light Snow